| time (UTC) | temp C | wind direction | speed KPH | gust KPH | rain 1hr cm | rain 24hr cm | rain mn cm | humidity % | barometer mb |
| 20260906224507 | 37 | 95 | 3.2 | 12.9 | 0.00 | 0.00 | 0.00 | 38 | 1011.0 |
| 20260906224004 | 37 | 114 | 1.6 | 11.3 | 0.00 | 0.00 | 0.00 | 38 | 1011.0 |
| 20260906223505 | 37 | 122 | 1.6 | 11.3 | 0.00 | 0.00 | 0.00 | 38 | 1011.1 |
| 20260906223007 | 37 | 113 | 1.6 | 11.3 | 0.00 | 0.00 | 0.00 | 38 | 1011.2 |
| 20260906222503 | 37 | 146 | 1.6 | 11.3 | 0.00 | 0.00 | 0.00 | 39 | 1011.2 |
| 20260906222004 | 37 | 134 | 3.2 | 11.3 | 0.00 | 0.00 | 0.00 | 39 | 1011.2 |
| 20260906221508 | 37 | 165 | 1.6 | 11.3 | 0.00 | 0.00 | 0.00 | 38 | 1011.2 |
| 20260906221004 | 37 | 111 | 1.6 | 11.3 | 0.00 | 0.00 | 0.00 | 38 | 1011.2 |
| 20260906220505 | 37 | 116 | 3.2 | 14.5 | 0.00 | 0.00 | 0.00 | 39 | 1011.2 |
| 20260906215504 | 37 | 136 | 3.2 | 12.9 | 0.00 | 0.00 | 0.00 | 39 | 1011.3 |
| 20260906215004 | 37 | 128 | 3.2 | 14.5 | 0.00 | 0.00 | 0.00 | 39 | 1011.2 |
| 20260906214507 | 37 | 105 | 3.2 | 14.5 | 0.00 | 0.00 | 0.00 | 39 | 1011.3 |
| 20260906213504 | 37 | 104 | 3.2 | 11.3 | 0.00 | 0.00 | 0.00 | 39 | 1011.4 |
| 20260906213007 | 37 | 91 | 1.6 | 12.9 | 0.00 | 0.00 | 0.00 | 40 | 1011.5 |
| 20260906212504 | 37 | 102 | 3.2 | 16.1 | 0.00 | 0.00 | 0.00 | 40 | 1011.7 |
| 20260906211004 | 37 | 137 | 3.2 | 12.9 | 0.00 | 0.00 | 0.00 | 40 | 1011.8 |
| 20260906210009 | 37 | 181 | 3.2 | 16.1 | 0.00 | 0.00 | 0.00 | 40 | 1012.0 |
| 20260906205504 | 38 | 126 | 1.6 | 14.5 | 0.00 | 0.00 | 0.00 | 40 | 1012.1 |
| 20260906205004 | 37 | 145 | 3.2 | 14.5 | 0.00 | 0.00 | 0.00 | 40 | 1012.2 |
| 20260906204509 | 37 | 208 | 3.2 | 16.1 | 0.00 | 0.00 | 0.00 | 39 | 1012.3 |
| 20260906204005 | 37 | 136 | 4.8 | 17.7 | 0.00 | 0.00 | 0.00 | 41 | 1012.3 |
| 20260906203504 | 37 | 96 | 1.6 | 14.5 | 0.00 | 0.00 | 0.00 | 40 | 1012.4 |
| 20260906203008 | 38 | 123 | 1.6 | 12.9 | 0.00 | 0.00 | 0.00 | 39 | 1012.4 |
| 20260906202504 | 37 | 178 | 1.6 | 12.9 | 0.00 | 0.00 | 0.00 | 40 | 1012.5 |
| 20260906202005 | 37 | 194 | 1.6 | 16.1 | 0.00 | 0.00 | 0.00 | 40 | 1012.5 |
| 20260906201507 | 37 | 136 | 4.8 | 16.1 | 0.00 | 0.00 | 0.00 | 39 | 1012.5 |
| 20260906201005 | 37 | 148 | 3.2 | 12.9 | 0.00 | 0.00 | 0.00 | 39 | 1012.6 |
| 20260906200504 | 38 | 139 | 0.0 | 9.7 | 0.00 | 0.00 | 0.00 | 40 | 1012.7 |
| 20260906200008 | 38 | 121 | 1.6 | 12.9 | 0.00 | 0.00 | 0.00 | 39 | 1012.7 |
| 20260906195503 | 37 | 146 | 1.6 | 12.9 | 0.00 | 0.00 | 0.00 | 40 | 1012.6 |
| 20260906195003 | 37 | 196 | 3.2 | 12.9 | 0.00 | 0.00 | 0.00 | 40 | 1012.7 |
| 20260906194506 | 37 | 74 | 4.8 | 12.9 | 0.00 | 0.00 | 0.00 | 40 | 1012.9 |
| 20260906194003 | 37 | 141 | 1.6 | 16.1 | 0.00 | 0.00 | 0.00 | 40 | 1013.0 |
| 20260906193006 | 37 | 113 | 4.8 | 17.7 | 0.00 | 0.00 | 0.00 | 40 | 1013.1 |
| 20260906192503 | 37 | 126 | 3.2 | 12.9 | 0.00 | 0.00 | 0.00 | 40 | 1013.1 |
| 20260906192003 | 37 | 172 | 3.2 | 19.3 | 0.00 | 0.00 | 0.00 | 40 | 1013.2 |
| 20260906191506 | 37 | 146 | 1.6 | 12.9 | 0.00 | 0.00 | 0.00 | 40 | 1013.3 |
| 20260906191004 | 37 | 115 | 3.2 | 17.7 | 0.00 | 0.00 | 0.00 | 40 | 1013.3 |
| 20260906190502 | 37 | 96 | 3.2 | 17.7 | 0.00 | 0.00 | 0.00 | 39 | 1013.3 |
| 20260906185502 | 37 | 113 | 3.2 | 16.1 | 0.00 | 0.00 | 0.00 | 41 | 1013.4 |
| 20260906184003 | 36 | 117 | 1.6 | 12.9 | 0.00 | 0.00 | 0.00 | 43 | 1013.5 |
| 20260906183503 | 36 | 170 | 3.2 | 12.9 | 0.00 | 0.00 | 0.00 | 43 | 1013.6 |
| 20260906183006 | 36 | 114 | 1.6 | 6.4 | 0.00 | 0.00 | 0.00 | 44 | 1013.7 |
| 20260906182004 | 36 | 175 | 1.6 | 16.1 | 0.00 | 0.00 | 0.00 | 44 | 1013.9 |
| 20260906181507 | 36 | 106 | 1.6 | 16.1 | 0.00 | 0.00 | 0.00 | 45 | 1013.9 |
| 20260906181004 | 36 | 106 | 1.6 | 14.5 | 0.00 | 0.00 | 0.00 | 45 | 1014.0 |
| 20260906180503 | 36 | 107 | 3.2 | 14.5 | 0.00 | 0.00 | 0.00 | 45 | 1014.0 |
| 20260906180009 | 36 | 122 | 1.6 | 14.5 | 0.00 | 0.00 | 0.00 | 45 | 1014.0 |
| 20260906175504 | 36 | 162 | 3.2 | 17.7 | 0.00 | 0.00 | 0.00 | 45 | 1014.2 |
| 20260906175003 | 35 | 161 | 4.8 | 17.7 | 0.00 | 0.00 | 0.00 | 46 | 1014.3 |
| 20260906174003 | 35 | 63 | 1.6 | 17.7 | 0.00 | 0.00 | 0.00 | 48 | 1014.4 |
| 20260906173503 | 35 | 124 | 3.2 | 17.7 | 0.00 | 0.00 | 0.00 | 48 | 1014.6 |
| 20260906173007 | 35 | 146 | 1.6 | 9.7 | 0.00 | 0.00 | 0.00 | 48 | 1014.6 |
| 20260906172503 | 35 | 155 | 1.6 | 11.3 | 0.00 | 0.00 | 0.00 | 48 | 1014.6 |
| 20260906172003 | 35 | 98 | 3.2 | 14.5 | 0.00 | 0.00 | 0.00 | 49 | 1014.6 |
| 20260906171506 | 35 | 97 | 1.6 | 14.5 | 0.00 | 0.00 | 0.00 | 49 | 1014.7 |
| 20260906170008 | 35 | 225 | 1.6 | 11.3 | 0.00 | 0.00 | 0.00 | 49 | 1014.8 |
| 20260906165003 | 35 | 195 | 1.6 | 11.3 | 0.00 | 0.00 | 0.00 | 50 | 1014.9 |
| 20260906164506 | 35 | 110 | 1.6 | 11.3 | 0.00 | 0.00 | 0.00 | 50 | 1014.9 |
| 20260906164003 | 35 | 163 | 1.6 | 8.0 | 0.00 | 0.00 | 0.00 | 51 | 1015.0 |
| 20260906163006 | 34 | 179 | 0.0 | 8.0 | 0.00 | 0.00 | 0.00 | 53 | 1015.0 |
| 20260906162503 | 35 | 180 | 1.6 | 8.0 | 0.00 | 0.00 | 0.00 | 53 | 1015.0 |
| 20260906162002 | 34 | 192 | 1.6 | 8.0 | 0.00 | 0.00 | 0.00 | 54 | 1014.8 |
| 20260906161506 | 33 | 206 | 1.6 | 11.3 | 0.00 | 0.00 | 0.00 | 55 | 1014.9 |
| 20260906161003 | 33 | 200 | 3.2 | 11.3 | 0.00 | 0.00 | 0.00 | 55 | 1015.0 |
| 20260906160503 | 33 | 202 | 1.6 | 9.7 | 0.00 | 0.00 | 0.00 | 56 | 1014.9 |
| 20260906160008 | 33 | 175 | 0.0 | 8.0 | 0.00 | 0.00 | 0.00 | 55 | 1014.9 |
| 20260906155503 | 33 | 191 | 1.6 | 8.0 | 0.00 | 0.00 | 0.00 | 56 | 1014.9 |
| 20260906155003 | 33 | 259 | 0.0 | 6.4 | 0.00 | 0.00 | 0.00 | 56 | 1014.8 |
| 20260906154507 | 33 | 71 | 0.0 | 4.8 | 0.00 | 0.00 | 0.00 | 58 | 1014.8 |
| 20260906154003 | 33 | 71 | 0.0 | 4.8 | 0.00 | 0.00 | 0.00 | 59 | 1014.8 |
| 20260906153503 | 33 | 96 | 0.0 | 4.8 | 0.00 | 0.00 | 0.00 | 60 | 1014.8 |
| 20260906153006 | 33 | 80 | 0.0 | 4.8 | 0.00 | 0.00 | 0.00 | 59 | 1014.8 |
| 20260906152502 | 33 | 80 | 0.0 | 4.8 | 0.00 | 0.00 | 0.00 | 61 | 1014.7 |
| 20260906152003 | 32 | 82 | 0.0 | 4.8 | 0.00 | 0.00 | 0.00 | 60 | 1014.5 |
| 20260906151002 | 32 | 90 | 0.0 | 4.8 | 0.00 | 0.00 | 0.00 | 61 | 1014.4 |
| 20260906150503 | 32 | 90 | 0.0 | 4.8 | 0.00 | 0.00 | 0.00 | 62 | 1014.3 |
| 20260906145502 | 31 | 83 | 0.0 | 6.4 | 0.00 | 0.00 | 0.00 | 63 | 1014.4 |
| 20260906145003 | 31 | 65 | 1.6 | 6.4 | 0.00 | 0.00 | 0.00 | 63 | 1014.4 |
| 20260906143503 | 31 | 137 | 0.0 | 6.4 | 0.00 | 0.00 | 0.00 | 67 | 1014.3 |
| 20260906142502 | 31 | 137 | 0.0 | 1.6 | 0.00 | 0.00 | 0.00 | 68 | 1014.4 |
| 20260906142002 | 31 | 137 | 0.0 | 0.0 | 0.00 | 0.00 | 0.00 | 67 | 1014.5 |
| 20260906141506 | 31 | 137 | 0.0 | 0.0 | 0.00 | 0.00 | 0.00 | 68 | 1014.6 |
| 20260906140503 | 30 | 138 | 0.0 | 1.6 | 0.00 | 0.00 | 0.00 | 69 | 1014.6 |
| 20260906140007 | 30 | 137 | 0.0 | 3.2 | 0.00 | 0.00 | 0.00 | 69 | 1014.6 |
| 20260906135502 | 30 | 138 | 0.0 | 0.0 | 0.00 | 0.00 | 0.00 | 71 | 1014.6 |
| 20260906135001 | 30 | 138 | 0.0 | 0.0 | 0.00 | 0.00 | 0.00 | 71 | 1014.6 |
| 20260906134505 | 30 | 137 | 0.0 | 0.0 | 0.00 | 0.00 | 0.00 | 71 | 1014.5 |
| 20260906134001 | 30 | 137 | 0.0 | 0.0 | 0.00 | 0.00 | 0.00 | 71 | 1014.5 |
| 20260906133502 | 30 | 138 | 0.0 | 0.0 | 0.00 | 0.00 | 0.00 | 73 | 1014.5 |
| 20260906133005 | 29 | 138 | 0.0 | 0.0 | 0.00 | 0.00 | 0.00 | 74 | 1014.6 |
| 20260906132001 | 28 | 138 | 0.0 | 0.0 | 0.00 | 0.00 | 0.00 | 76 | 1014.6 |
| 20260906131505 | 28 | 138 | 0.0 | 0.0 | 0.00 | 0.00 | 0.00 | 77 | 1014.5 |
| 20260906131001 | 28 | 137 | 0.0 | 0.0 | 0.00 | 0.00 | 0.00 | 77 | 1014.5 |
| 20260906130502 | 27 | 137 | 0.0 | 0.0 | 0.00 | 0.00 | 0.00 | 78 | 1014.4 |
| 20260906130007 | 27 | 138 | 0.0 | 0.0 | 0.00 | 0.00 | 0.00 | 81 | 1014.4 |
| 20260906125501 | 26 | 138 | 0.0 | 0.0 | 0.00 | 0.00 | 0.00 | 82 | 1014.3 |
| 20260906125002 | 26 | 137 | 0.0 | 0.0 | 0.00 | 0.00 | 0.00 | 83 | 1014.2 |
| 20260906124504 | 26 | 138 | 0.0 | 0.0 | 0.00 | 0.00 | 0.00 | 83 | 1014.2 |
| 20260906123502 | 25 | 138 | 0.0 | 0.0 | 0.00 | 0.00 | 0.00 | 83 | 1014.3 |
| 20260906123005 | 25 | 137 | 0.0 | 0.0 | 0.00 | 0.00 | 0.00 | 84 | 1014.2 |
| 20260906122502 | 25 | 137 | 0.0 | 0.0 | 0.00 | 0.00 | 0.00 | 83 | 1014.1 |
| 20260906122002 | 25 | 137 | 0.0 | 0.0 | 0.00 | 0.00 | 0.00 | 83 | 1014.1 |
| 20260906121505 | 25 | 137 | 0.0 | 0.0 | 0.00 | 0.00 | 0.00 | 82 | 1014.0 |
| 20260906121002 | 25 | 137 | 0.0 | 0.0 | 0.00 | 0.00 | 0.00 | 82 | 1014.0 |
| 20260906120501 | 25 | 137 | 0.0 | 0.0 | 0.00 | 0.00 | 0.00 | 82 | 1013.9 |
| 20260906120007 | 26 | 137 | 0.0 | 0.0 | 0.00 | 0.00 | 0.00 | 82 | 1013.9 |
| 20260906115502 | 26 | 137 | 0.0 | 0.0 | 0.00 | 0.00 | 0.00 | 82 | 1013.9 |
| 20260906114002 | 26 | 137 | 0.0 | 0.0 | 0.00 | 0.00 | 0.00 | 82 | 1013.8 |
| 20260906113501 | 26 | 137 | 0.0 | 0.0 | 0.00 | 0.00 | 0.00 | 82 | 1013.8 |
| 20260906113006 | 26 | 137 | 0.0 | 0.0 | 0.00 | 0.00 | 0.00 | 82 | 1013.8 |
| 20260906112502 | 26 | 137 | 0.0 | 0.0 | 0.00 | 0.00 | 0.00 | 81 | 1013.7 |
| 20260906112001 | 26 | 137 | 0.0 | 0.0 | 0.00 | 0.00 | 0.00 | 81 | 1013.7 |
| 20260906111505 | 26 | 137 | 0.0 | 0.0 | 0.00 | 0.00 | 0.00 | 81 | 1013.6 |
| 20260906111001 | 26 | 137 | 0.0 | 0.0 | 0.00 | 0.00 | 0.00 | 82 | 1013.6 |
| 20260906110501 | 26 | 137 | 0.0 | 0.0 | 0.00 | 0.00 | 0.00 | 82 | 1013.5 |
| 20260906104504 | 26 | 137 | 0.0 | 0.0 | 0.00 | 0.00 | 0.00 | 81 | 1013.3 |
| 20260906104001 | 26 | 137 | 0.0 | 0.0 | 0.00 | 0.00 | 0.00 | 81 | 1013.3 |
| 20260906103501 | 26 | 137 | 0.0 | 0.0 | 0.00 | 0.00 | 0.00 | 81 | 1013.3 |
| 20260906103004 | 26 | 137 | 0.0 | 0.0 | 0.00 | 0.00 | 0.00 | 80 | 1013.3 |
| 20260906102501 | 26 | 137 | 0.0 | 0.0 | 0.00 | 0.00 | 0.00 | 80 | 1013.3 |
| 20260906102000 | 26 | 137 | 0.0 | 0.0 | 0.00 | 0.00 | 0.00 | 80 | 1013.3 |
| 20260906101504 | 26 | 137 | 0.0 | 0.0 | 0.00 | 0.00 | 0.00 | 80 | 1013.2 |
| 20260906101001 | 26 | 137 | 0.0 | 0.0 | 0.00 | 0.00 | 0.00 | 80 | 1013.2 |
| 20260906100500 | 26 | 137 | 0.0 | 0.0 | 0.00 | 0.00 | 0.00 | 79 | 1013.2 |
| 20260906095501 | 26 | 137 | 0.0 | 0.0 | 0.00 | 0.00 | 0.00 | 78 | 1013.2 |
| 20260906095001 | 26 | 137 | 0.0 | 0.0 | 0.00 | 0.00 | 0.00 | 78 | 1013.2 |
| 20260906094504 | 26 | 137 | 0.0 | 0.0 | 0.00 | 0.00 | 0.00 | 78 | 1013.1 |
| 20260906094001 | 26 | 137 | 0.0 | 0.0 | 0.00 | 0.00 | 0.00 | 77 | 1013.0 |
| 20260906093500 | 27 | 138 | 0.0 | 0.0 | 0.00 | 0.00 | 0.00 | 77 | 1013.0 |
| 20260906092501 | 27 | 137 | 0.0 | 0.0 | 0.00 | 0.00 | 0.00 | 76 | 1012.9 |
| 20260906092001 | 27 | 137 | 0.0 | 0.0 | 0.00 | 0.00 | 0.00 | 76 | 1012.8 |
| 20260906091504 | 27 | 137 | 0.0 | 0.0 | 0.00 | 0.00 | 0.00 | 76 | 1012.7 |
| 20260906091001 | 27 | 137 | 0.0 | 0.0 | 0.00 | 0.00 | 0.00 | 76 | 1012.7 |
| 20260906090501 | 27 | 137 | 0.0 | 0.0 | 0.00 | 0.00 | 0.00 | 76 | 1012.7 |
| 20260906090006 | 27 | 137 | 0.0 | 0.0 | 0.00 | 0.00 | 0.00 | 76 | 1012.7 |
| 20260906085500 | 27 | 137 | 0.0 | 0.0 | 0.00 | 0.00 | 0.00 | 76 | 1012.6 |
| 20260906085002 | 27 | 137 | 0.0 | 0.0 | 0.00 | 0.00 | 0.00 | 75 | 1012.7 |
| 20260906084504 | 27 | 137 | 0.0 | 0.0 | 0.00 | 0.00 | 0.00 | 75 | 1012.7 |
| 20260906084001 | 27 | 137 | 0.0 | 0.0 | 0.00 | 0.00 | 0.00 | 75 | 1012.7 |
| 20260906083501 | 27 | 137 | 0.0 | 0.0 | 0.00 | 0.00 | 0.00 | 74 | 1012.6 |
| 20260906083004 | 27 | 137 | 0.0 | 0.0 | 0.00 | 0.00 | 0.00 | 74 | 1012.6 |
| 20260906082501 | 27 | 137 | 0.0 | 0.0 | 0.00 | 0.00 | 0.00 | 73 | 1012.6 |
| 20260906082000 | 27 | 137 | 0.0 | 0.0 | 0.00 | 0.00 | 0.00 | 72 | 1012.6 |
| 20260906081506 | 27 | 137 | 0.0 | 0.0 | 0.00 | 0.00 | 0.00 | 72 | 1012.5 |
| 20260906081001 | 27 | 137 | 0.0 | 0.0 | 0.00 | 0.00 | 0.00 | 73 | 1012.4 |
| 20260906080500 | 27 | 137 | 0.0 | 0.0 | 0.00 | 0.00 | 0.00 | 73 | 1012.3 |
| 20260906080006 | 27 | 137 | 0.0 | 0.0 | 0.00 | 0.00 | 0.00 | 73 | 1012.3 |
| 20260906074504 | 27 | 137 | 0.0 | 0.0 | 0.00 | 0.00 | 0.00 | 72 | 1012.5 |
| 20260906074000 | 27 | 137 | 0.0 | 0.0 | 0.00 | 0.00 | 0.00 | 72 | 1012.6 |
| 20260906073500 | 27 | 137 | 0.0 | 0.0 | 0.00 | 0.00 | 0.00 | 72 | 1012.6 |
| 20260906073005 | 27 | 137 | 0.0 | 0.0 | 0.00 | 0.00 | 0.00 | 71 | 1012.7 |
| 20260906072500 | 27 | 137 | 0.0 | 0.0 | 0.00 | 0.00 | 0.00 | 71 | 1012.7 |
| 20260906072000 | 27 | 137 | 0.0 | 0.0 | 0.00 | 0.00 | 0.00 | 71 | 1012.8 |
| 20260906071505 | 28 | 137 | 0.0 | 0.0 | 0.00 | 0.00 | 0.00 | 71 | 1012.9 |
| 20260906071000 | 28 | 137 | 0.0 | 0.0 | 0.00 | 0.00 | 0.00 | 70 | 1013.0 |
| 20260906070500 | 28 | 137 | 0.0 | 0.0 | 0.00 | 0.00 | 0.00 | 70 | 1013.0 |
| 20260906070007 | 28 | 137 | 0.0 | 0.0 | 0.00 | 0.00 | 0.00 | 69 | 1013.0 |
| 20260906065000 | 28 | 137 | 0.0 | 1.6 | 0.00 | 0.00 | 0.00 | 69 | 1012.9 |
| 20260906064504 | 28 | 137 | 0.0 | 1.6 | 0.00 | 0.00 | 0.00 | 70 | 1013.0 |
| 20260906063004 | 28 | 137 | 0.0 | 0.0 | 0.00 | 0.00 | 0.00 | 69 | 1013.0 |
| 20260906062501 | 28 | 137 | 0.0 | 0.0 | 0.00 | 0.00 | 0.00 | 69 | 1012.9 |
| 20260906062000 | 28 | 137 | 0.0 | 0.0 | 0.00 | 0.00 | 0.00 | 69 | 1012.9 |
| 20260906061503 | 28 | 137 | 0.0 | 0.0 | 0.00 | 0.00 | 0.00 | 69 | 1012.8 |
| 20260906061001 | 28 | 137 | 0.0 | 0.0 | 0.00 | 0.00 | 0.00 | 69 | 1012.8 |
| 20260906060501 | 28 | 137 | 0.0 | 0.0 | 0.00 | 0.00 | 0.00 | 69 | 1012.8 |
| 20260906060010 | 28 | 137 | 0.0 | 0.0 | 0.00 | 0.00 | 0.00 | 69 | 1012.8 |
| 20260906055006 | 28 | 137 | 0.0 | 0.0 | 0.00 | 0.00 | 0.00 | 68 | 1012.9 |
| 20260906054509 | 28 | 137 | 0.0 | 0.0 | 0.00 | 0.00 | 0.00 | 68 | 1013.0 |
| 20260906053506 | 28 | 137 | 0.0 | 0.0 | 0.00 | 0.00 | 0.00 | 67 | 1013.0 |
| 20260906053008 | 28 | 137 | 0.0 | 0.0 | 0.00 | 0.00 | 0.00 | 66 | 1013.0 |
| 20260906052505 | 29 | 137 | 0.0 | 0.0 | 0.00 | 0.00 | 0.00 | 66 | 1013.2 |
| 20260906052005 | 29 | 137 | 0.0 | 1.6 | 0.00 | 0.00 | 0.00 | 66 | 1013.2 |
| 20260906051005 | 30 | 137 | 0.0 | 1.6 | 0.00 | 0.00 | 0.00 | 64 | 1013.2 |
| 20260906050015 | 30 | 137 | 0.0 | 3.2 | 0.00 | 0.00 | 0.00 | 64 | 1013.1 |
| 20260906045505 | 30 | 137 | 0.0 | 3.2 | 0.00 | 0.00 | 0.00 | 63 | 1013.0 |
| 20260906045006 | 30 | 138 | 0.0 | 3.2 | 0.00 | 0.00 | 0.00 | 63 | 1013.0 |
| 20260906044509 | 30 | 137 | 0.0 | 0.0 | 0.00 | 0.00 | 0.00 | 63 | 1013.0 |
| 20260906044005 | 30 | 137 | 0.0 | 0.0 | 0.00 | 0.00 | 0.00 | 62 | 1012.9 |
| 20260906043505 | 30 | 137 | 0.0 | 0.0 | 0.00 | 0.00 | 0.00 | 62 | 1012.9 |
| 20260906043009 | 30 | 137 | 0.0 | 0.0 | 0.00 | 0.00 | 0.00 | 62 | 1013.0 |
| 20260906042506 | 30 | 138 | 0.0 | 0.0 | 0.00 | 0.00 | 0.00 | 61 | 1012.9 |
| 20260906042005 | 30 | 137 | 0.0 | 0.0 | 0.00 | 0.00 | 0.00 | 61 | 1012.9 |
| 20260906040505 | 30 | 138 | 0.0 | 1.6 | 0.00 | 0.00 | 0.00 | 60 | 1012.7 |
| 20260906040011 | 30 | 138 | 0.0 | 1.6 | 0.00 | 0.00 | 0.00 | 60 | 1012.7 |
| 20260906035506 | 30 | 137 | 0.0 | 1.6 | 0.00 | 0.00 | 0.00 | 59 | 1012.7 |
| 20260906035005 | 31 | 138 | 0.0 | 1.6 | 0.00 | 0.00 | 0.00 | 59 | 1012.8 |
| 20260906034509 | 31 | 138 | 0.0 | 0.0 | 0.00 | 0.00 | 0.00 | 59 | 1012.8 |
| 20260906034006 | 31 | 137 | 0.0 | 1.6 | 0.00 | 0.00 | 0.00 | 59 | 1012.8 |
| 20260906033505 | 31 | 138 | 0.0 | 4.8 | 0.00 | 0.00 | 0.00 | 58 | 1012.8 |
| 20260906033009 | 31 | 138 | 0.0 | 6.4 | 0.00 | 0.00 | 0.00 | 58 | 1012.8 |
| 20260906032005 | 31 | 137 | 0.0 | 4.8 | 0.00 | 0.00 | 0.00 | 57 | 1012.9 |
| 20260906031509 | 31 | 137 | 0.0 | 4.8 | 0.00 | 0.00 | 0.00 | 57 | 1012.9 |
| 20260906031005 | 31 | 137 | 0.0 | 4.8 | 0.00 | 0.00 | 0.00 | 57 | 1012.8 |
| 20260906030505 | 31 | 137 | 0.0 | 4.8 | 0.00 | 0.00 | 0.00 | 56 | 1012.8 |
| 20260906025505 | 31 | 137 | 1.6 | 8.0 | 0.00 | 0.00 | 0.00 | 56 | 1012.8 |
| 20260906025005 | 32 | 216 | 1.6 | 9.7 | 0.00 | 0.00 | 0.00 | 55 | 1012.7 |
| 20260906024508 | 32 | 121 | 1.6 | 9.7 | 0.00 | 0.00 | 0.00 | 55 | 1012.7 |
| 20260906023506 | 32 | 112 | 1.6 | 9.7 | 0.00 | 0.00 | 0.00 | 55 | 1012.4 |
| 20260906023009 | 32 | 126 | 1.6 | 11.3 | 0.00 | 0.00 | 0.00 | 54 | 1012.4 |
| 20260906022505 | 32 | 125 | 1.6 | 16.1 | 0.00 | 0.00 | 0.00 | 53 | 1012.2 |
| 20260906022005 | 32 | 129 | 1.6 | 16.1 | 0.00 | 0.00 | 0.00 | 53 | 1012.1 |
| 20260906021509 | 33 | 121 | 0.0 | 4.8 | 0.00 | 0.00 | 0.00 | 53 | 1012.1 |
| 20260906021006 | 33 | 117 | 0.0 | 11.3 | 0.00 | 0.00 | 0.00 | 52 | 1012.1 |
| 20260906020505 | 33 | 105 | 0.0 | 11.3 | 0.00 | 0.00 | 0.00 | 51 | 1012.0 |
| 20260906015005 | 33 | 113 | 0.0 | 14.5 | 0.00 | 0.00 | 0.00 | 51 | 1011.7 |
| 20260906014509 | 33 | 140 | 3.2 | 14.5 | 0.00 | 0.00 | 0.00 | 52 | 1011.6 |
| 20260906013506 | 33 | 150 | 0.0 | 1.6 | 0.00 | 0.00 | 0.00 | 52 | 1011.4 |
| 20260906013009 | 33 | 149 | 0.0 | 1.6 | 0.00 | 0.00 | 0.00 | 52 | 1011.3 |
| 20260906012506 | 33 | 150 | 0.0 | 1.6 | 0.00 | 0.00 | 0.00 | 52 | 1011.3 |
| 20260906012005 | 33 | 150 | 0.0 | 3.2 | 0.00 | 0.00 | 0.00 | 52 | 1011.3 |
| 20260906011509 | 33 | 150 | 0.0 | 3.2 | 0.00 | 0.00 | 0.00 | 51 | 1011.2 |
| 20260906011006 | 34 | 188 | 0.0 | 0.0 | 0.00 | 0.00 | 0.00 | 50 | 1011.1 |
| 20260906010011 | 34 | 188 | 0.0 | 1.6 | 0.00 | 0.00 | 0.00 | 46 | 1011.1 |
| 20260906005504 | 35 | 188 | 0.0 | 0.0 | 0.00 | 0.00 | 0.00 | 45 | 1011.0 |
| 20260906005004 | 35 | 188 | 0.0 | 0.0 | 0.00 | 0.00 | 0.00 | 42 | 1011.0 |
| 20260906004508 | 35 | 188 | 0.0 | 1.6 | 0.00 | 0.00 | 0.00 | 42 | 1011.0 |
| 20260906004004 | 35 | 188 | 0.0 | 1.6 | 0.00 | 0.00 | 0.00 | 41 | 1011.0 |
| 20260906003007 | 36 | 188 | 0.0 | 0.0 | 0.00 | 0.00 | 0.00 | 41 | 1011.0 |
| 20260906002504 | 36 | 188 | 0.0 | 0.0 | 0.00 | 0.00 | 0.00 | 40 | 1011.0 |
| 20260906002004 | 36 | 188 | 0.0 | 0.0 | 0.00 | 0.00 | 0.00 | 39 | 1011.0 |
| 20260906001507 | 36 | 188 | 0.0 | 0.0 | 0.00 | 0.00 | 0.00 | 39 | 1011.0 |
| 20260906001004 | 36 | 188 | 0.0 | 0.0 | 0.00 | 0.00 | 0.00 | 39 | 1010.9 |
| 20260906000504 | 36 | 188 | 0.0 | 0.0 | 0.00 | 0.00 | 0.00 | 38 | 1011.0 |
| 20260905235504 | 37 | 188 | 0.0 | 4.8 | 0.00 | 0.00 | 0.00 | 39 | 1010.9 |
| 20260905235005 | 37 | 188 | 0.0 | 4.8 | 0.00 | 0.00 | 0.00 | 39 | 1010.8 |
| 20260905234004 | 37 | 187 | 0.0 | 6.4 | 0.00 | 0.00 | 0.00 | 38 | 1010.7 |
| 20260905233504 | 37 | 188 | 0.0 | 6.4 | 0.00 | 0.00 | 0.00 | 38 | 1010.8 |
| 20260905233008 | 37 | 186 | 0.0 | 6.4 | 0.00 | 0.00 | 0.00 | 38 | 1010.8 |
| 20260905232505 | 37 | 186 | 0.0 | 4.8 | 0.00 | 0.00 | 0.00 | 38 | 1010.7 |
| 20260905232004 | 37 | 186 | 1.6 | 6.4 | 0.00 | 0.00 | 0.00 | 38 | 1010.8 |
| 20260905231508 | 37 | 186 | 1.6 | 9.7 | 0.00 | 0.00 | 0.00 | 38 | 1010.8 |
| 20260905231004 | 37 | 192 | 1.6 | 9.7 | 0.00 | 0.00 | 0.00 | 37 | 1010.8 |
| 20260905230504 | 37 | 111 | 1.6 | 9.7 | 0.00 | 0.00 | 0.00 | 37 | 1010.9 |
| 20260905230010 | 37 | 74 | 0.0 | 9.7 | 0.00 | 0.00 | 0.00 | 38 | 1010.9 |
| 20260905225505 | 37 | 123 | 1.6 | 9.7 | 0.00 | 0.00 | 0.00 | 37 | 1010.7 |
| 20260905225004 | 37 | 123 | 1.6 | 8.0 | 0.00 | 0.00 | 0.00 | 38 | 1010.9 |